Regional Weather Roundup
Issued by NWS Goodland, KS

Home | Current Version | Previous Version | Graphics & Text | Print | Product List | Glossary On
Versions: 1 2 3 4 5 6 7 8 9 10 11 12 13 14 15 16 17 18 19 20 21 22 23 24 25 26 27 28 29 30 31 32 33 34 35 36 37 38 39 40 41 42 43 44 45 46 47 48 49 50
182
ASUS43 KGLD 181259
RWRGLD

GOODLAND FORECAST AREA HOURLY WEATHER ROUNDUP
NATIONAL WEATHER SERVICE GOODLAND KS
600 AM MST MON DEC 18 2017

...OFFICIAL OBSERVATIONS...

CITY           SKY/WX    TMP DP  RH WIND       PRES   REMARKS
GOODLAND KS    CLEAR     26  21  81 SW9       29.98S
HILL CITY KS   CLEAR     25  22  88 W9        30.02R
IMPERIAL NEB   CLOUDY    19  16  88 W5        29.97R
MCCOOK NEB     CLOUDY    22  19  89 W12       29.98S WCI  10
AKRON CO       CLOUDY    23  19  85 W12       29.96R WCI  12
BURLINGTON CO  CLOUDY    18  16  92 SW14      29.98R WCI   4
LIMON CO       CLOUDY    10   9  95 NW3       29.98R
$$

...UNOFFICIAL OBSERVATIONS...

CITY           SKY/WX    TMP DP  RH WIND       PRES   REMARKS
LENORA KS        N/A     26  32 100 SW8         N/A
NORTON KS      CLEAR     19  16  86 SW8       29.98
SHARON SPRINGS   N/A     18  16  90 SW7         N/A
TRENTON NEB      N/A     21  32 100 NW6         N/A
KIT CARSON CO    N/A     11   8  85 CALM        N/A
YUMA CO        FAIR      18  14  86 W12       29.96R WCI   5
$$




USA.gov is the U.S. government's official web portal to all federal, state and local government web resources and services.